Wetterdaten: Montag, 05.03.2007
Datum Zeit Temp. A. Feuchte A. Luftdruck Regen Wind Richtung Richtung Sonnenschein UV Solar Windben
05.03.2007 00:00 9,3 C 63 % 1011,8 hPa 0,0 mm 3,2 km/h (1 Bft) O 90 0 min 0 UV-I 0 W/m 8,0 km/h (2 Bft)
05.03.2007 00:10 9,3 C 64 % 1011,6 hPa 0,0 mm 1,6 km/h (1 Bft) O 90 0 min 0 UV-I 0 W/m 9,7 km/h (2 Bft)
05.03.2007 00:20 9,3 C 62 % 1011,7 hPa 0,0 mm 3,2 km/h (1 Bft) O 90 0 min 0 UV-I 0 W/m 11,3 km/h (2 Bft)
05.03.2007 00:30 9,4 C 62 % 1011,5 hPa 0,0 mm 1,6 km/h (1 Bft) O 90 0 min 0 UV-I 0 W/m 9,7 km/h (2 Bft)
05.03.2007 00:40 9,6 C 61 % 1011,4 hPa 0,0 mm 3,2 km/h (1 Bft) O 90 0 min 0 UV-I 0 W/m 4,8 km/h (1 Bft)
05.03.2007 00:50 9,6 C 61 % 1011,1 hPa 0,0 mm 3,2 km/h (1 Bft) O 90 0 min 0 UV-I 0 W/m 9,7 km/h (2 Bft)
05.03.2007 01:00 9,6 C 62 % 1010,7 hPa 0,0 mm 3,2 km/h (1 Bft) O 90 0 min 0 UV-I 0 W/m 9,7 km/h (2 Bft)
05.03.2007 01:10 9,5 C 61 % 1010,8 hPa 0,0 mm 1,6 km/h (1 Bft) O 90 0 min 0 UV-I 0 W/m 9,7 km/h (2 Bft)
05.03.2007 01:20 9,6 C 60 % 1010,8 hPa 0,0 mm 3,2 km/h (1 Bft) NO 45 0 min 0 UV-I 0 W/m 9,7 km/h (2 Bft)
05.03.2007 01:30 9,8 C 59 % 1010,5 hPa 0,0 mm 4,8 km/h (1 Bft) O 90 0 min 0 UV-I 0 W/m 16,1 km/h (3 Bft)
05.03.2007 01:40 9,8 C 59 % 1010,4 hPa 0,0 mm 3,2 km/h (1 Bft) O-NO 67 0 min 0 UV-I 0 W/m 16,1 km/h (3 Bft)
05.03.2007 01:50 9,9 C 59 % 1010,5 hPa 0,0 mm 3,2 km/h (1 Bft) O-SO 112 0 min 0 UV-I 0 W/m 17,7 km/h (3 Bft)
05.03.2007 02:00 9,9 C 59 % 1010,7 hPa 0,0 mm 1,6 km/h (1 Bft) S-SW 202 0 min 0 UV-I 0 W/m 9,7 km/h (2 Bft)
05.03.2007 02:10 9,8 C 59 % 1010,4 hPa 0,0 mm 3,2 km/h (1 Bft) O-SO 112 0 min 0 UV-I 0 W/m 9,7 km/h (2 Bft)
05.03.2007 02:20 9,7 C 60 % 1010,0 hPa 0,0 mm 3,2 km/h (1 Bft) O-SO 112 0 min 0 UV-I 0 W/m 8,0 km/h (2 Bft)
05.03.2007 02:30 9,7 C 59 % 1009,8 hPa 0,0 mm 4,8 km/h (1 Bft) O-SO 112 0 min 0 UV-I 0 W/m 11,3 km/h (2 Bft)
05.03.2007 02:40 9,8 C 59 % 1009,3 hPa 0,0 mm 3,2 km/h (1 Bft) O 90 0 min 0 UV-I 0 W/m 9,7 km/h (2 Bft)
05.03.2007 02:50 9,8 C 59 % 1009,5 hPa 0,0 mm 1,6 km/h (1 Bft) SO 135 0 min 0 UV-I 0 W/m 14,5 km/h (3 Bft)
05.03.2007 03:00 9,7 C 59 % 1009,4 hPa 0,0 mm 3,2 km/h (1 Bft) SO 135 0 min 0 UV-I 0 W/m 11,3 km/h (2 Bft)
05.03.2007 03:10 9,7 C 59 % 1009,4 hPa 0,0 mm 3,2 km/h (1 Bft) S-SO 157 0 min 0 UV-I 0 W/m 9,7 km/h (2 Bft)
05.03.2007 03:20 9,7 C 59 % 1009,1 hPa 0,0 mm 3,2 km/h (1 Bft) SO 135 0 min 0 UV-I 0 W/m 11,3 km/h (2 Bft)
05.03.2007 03:30 9,7 C 59 % 1008,7 hPa 0,0 mm 4,8 km/h (1 Bft) O-SO 112 0 min 0 UV-I 0 W/m 20,9 km/h (4 Bft)
05.03.2007 03:40 9,7 C 58 % 1008,5 hPa 0,0 mm 4,8 km/h (1 Bft) O 90 0 min 0 UV-I 0 W/m 16,1 km/h (3 Bft)
05.03.2007 03:50 9,9 C 57 % 1008,2 hPa 0,0 mm 4,8 km/h (1 Bft) O 90 0 min 0 UV-I 0 W/m 16,1 km/h (3 Bft)
05.03.2007 04:00 9,9 C 58 % 1008,2 hPa 0,0 mm 4,8 km/h (1 Bft) O-SO 112 0 min 0 UV-I 0 W/m 14,5 km/h (3 Bft)
05.03.2007 04:10 9,6 C 58 % 1008,1 hPa 0,0 mm 4,8 km/h (1 Bft) O-SO 112 0 min 0 UV-I 0 W/m 22,5 km/h (4 Bft)
05.03.2007 04:20 9,4 C 59 % 1007,6 hPa 0,0 mm 6,4 km/h (2 Bft) O 90 0 min 0 UV-I 0 W/m 17,7 km/h (3 Bft)
05.03.2007 04:30 9,3 C 59 % 1007,3 hPa 0,0 mm 6,4 km/h (2 Bft) O 90 0 min 0 UV-I 0 W/m 19,3 km/h (3 Bft)
05.03.2007 04:40 9,2 C 59 % 1007,1 hPa 0,0 mm 4,8 km/h (1 Bft) O-SO 112 0 min 0 UV-I 0 W/m 12,9 km/h (3 Bft)
05.03.2007 04:50 9,2 C 59 % 1007,3 hPa 0,0 mm 4,8 km/h (1 Bft) O 90 0 min 0 UV-I 0 W/m 14,5 km/h (3 Bft)
05.03.2007 05:00 9,1 C 60 % 1007,4 hPa 0,0 mm 4,8 km/h (1 Bft) O-SO 112 0 min 0 UV-I 0 W/m 19,3 km/h (3 Bft)
05.03.2007 05:10 9,0 C 60 % 1007,2 hPa 0,0 mm 6,4 km/h (2 Bft) O-SO 112 0 min 0 UV-I 0 W/m 19,3 km/h (3 Bft)
05.03.2007 05:20 9,1 C 59 % 1007,1 hPa 0,0 mm 6,4 km/h (2 Bft) S 180 0 min 0 UV-I 0 W/m 24,1 km/h (4 Bft)
05.03.2007 05:30 9,1 C 60 % 1007,0 hPa 0,0 mm 6,4 km/h (2 Bft) SO 135 0 min 0 UV-I 0 W/m 20,9 km/h (4 Bft)
05.03.2007 05:40 8,9 C 60 % 1006,9 hPa 0,0 mm 6,4 km/h (2 Bft) SO 135 0 min 0 UV-I 0 W/m 24,1 km/h (4 Bft)
05.03.2007 05:50 8,9 C 60 % 1006,7 hPa 0,0 mm 6,4 km/h (2 Bft) O-SO 112 0 min 0 UV-I 0 W/m 19,3 km/h (3 Bft)
05.03.2007 06:00 8,8 C 60 % 1006,7 hPa 0,0 mm 8,0 km/h (2 Bft) O 90 0 min 0 UV-I 0 W/m 20,9 km/h (4 Bft)
05.03.2007 06:10 8,8 C 60 % 1007,6 hPa 0,0 mm 6,4 km/h (2 Bft) S 180 0 min 0 UV-I 0 W/m 17,7 km/h (3 Bft)
05.03.2007 06:20 8,8 C 61 % 1008,2 hPa 0,0 mm 3,2 km/h (1 Bft) S-SO 157 0 min 0 UV-I 0 W/m 16,1 km/h (3 Bft)
05.03.2007 06:30 8,7 C 62 % 1008,6 hPa 0,0 mm 1,6 km/h (1 Bft) S-SO 157 0 min 0 UV-I 0 W/m 4,8 km/h (1 Bft)
05.03.2007 06:40 8,7 C 62 % 1008,9 hPa 0,0 mm 0,0 km/h (0 Bft) W 270 0 min 0 UV-I 0 W/m 4,8 km/h (1 Bft)
05.03.2007 06:50 8,5 C 63 % 1008,9 hPa 0,0 mm 1,6 km/h (1 Bft) O 90 0 min 0 UV-I 0 W/m 4,8 km/h (1 Bft)
05.03.2007 07:00 8,3 C 64 % 1008,9 hPa 0,0 mm 1,6 km/h (1 Bft) S-SO 157 0 min 0 UV-I 0 W/m 4,8 km/h (1 Bft)
05.03.2007 07:10 8,4 C 63 % 1008,9 hPa 0,0 mm 1,6 km/h (1 Bft) S-SO 157 0 min 0 UV-I 0 W/m 6,4 km/h (2 Bft)
05.03.2007 07:20 8,8 C 62 % 1009,0 hPa 0,0 mm 1,6 km/h (1 Bft) S-SO 157 0 min 0 UV-I 0 W/m 4,8 km/h (1 Bft)
05.03.2007 07:30 9,2 C 61 % 1009,2 hPa 0,0 mm 1,6 km/h (1 Bft) S-SO 157 0 min 0 UV-I 0 W/m 4,8 km/h (1 Bft)
05.03.2007 07:40 9,6 C 60 % 1009,7 hPa 0,0 mm 0,0 km/h (0 Bft) SO 135 0 min 0 UV-I 0 W/m 3,2 km/h (1 Bft)
05.03.2007 07:50 9,7 C 61 % 1009,7 hPa 0,0 mm 0,0 km/h (0 Bft) S-SW 202 0 min 0 UV-I 5 W/m 4,8 km/h (1 Bft)
05.03.2007 08:00 9,8 C 62 % 1009,9 hPa 0,0 mm 0,0 km/h (0 Bft) O 90 0 min 0 UV-I 7 W/m 4,8 km/h (1 Bft)
05.03.2007 08:10 10,2 C 64 % 1010,3 hPa 0,0 mm 3,2 km/h (1 Bft) SW 225 0 min 0 UV-I 7 W/m 9,7 km/h (2 Bft)
05.03.2007 08:20 10,9 C 62 % 1010,5 hPa 0,0 mm 6,4 km/h (2 Bft) SW 225 0 min 0 UV-I 12 W/m 22,5 km/h (4 Bft)
05.03.2007 08:30 11,2 C 62 % 1010,8 hPa 0,0 mm 6,4 km/h (2 Bft) W-SW 247 0 min 0 UV-I 28 W/m 24,1 km/h (4 Bft)
05.03.2007 08:40 11,2 C 64 % 1011,1 hPa 0,0 mm 6,4 km/h (2 Bft) SW 225 0 min 0 UV-I 33 W/m 22,5 km/h (4 Bft)
05.03.2007 08:50 10,9 C 66 % 1011,4 hPa 0,0 mm 4,8 km/h (1 Bft) W-SW 247 0 min 0 UV-I 32 W/m 24,1 km/h (4 Bft)
05.03.2007 09:00 10,7 C 69 % 1011,5 hPa 0,0 mm 4,8 km/h (1 Bft) S-SW 202 0 min 0 UV-I 42 W/m 11,3 km/h (2 Bft)
05.03.2007 09:10 10,4 C 72 % 1011,6 hPa 0,0 mm 4,8 km/h (1 Bft) W-SW 247 0 min 0 UV-I 49 W/m 16,1 km/h (3 Bft)
05.03.2007 09:20 10,2 C 73 % 1011,6 hPa 0,0 mm 4,8 km/h (1 Bft) SW 225 0 min 0 UV-I 65 W/m 16,1 km/h (3 Bft)
05.03.2007 09:30 10,1 C 74 % 1011,7 hPa 0,0 mm 4,8 km/h (1 Bft) W-SW 247 0 min 0 UV-I 65 W/m 17,7 km/h (3 Bft)
05.03.2007 09:40 10,0 C 77 % 1011,8 hPa 0,0 mm 4,8 km/h (1 Bft) W-SW 247 0 min 0 UV-I 74 W/m 14,5 km/h (3 Bft)
05.03.2007 09:50 9,9 C 78 % 1011,8 hPa 0,0 mm 3,2 km/h (1 Bft) SW 225 0 min 0 UV-I 104 W/m 9,7 km/h (2 Bft)
05.03.2007 10:00 9,9 C 79 % 1011,8 hPa 0,0 mm 3,2 km/h (1 Bft) S-SW 202 0 min 1 UV-I 172 W/m 14,5 km/h (3 Bft)
05.03.2007 10:10 10,1 C 78 % 1011,9 hPa 0,0 mm 3,2 km/h (1 Bft) SW 225 0 min 1 UV-I 120 W/m 14,5 km/h (3 Bft)
05.03.2007 10:20 10,2 C 77 % 1012,1 hPa 0,0 mm 3,2 km/h (1 Bft) SW 225 0 min 1 UV-I 132 W/m 8,0 km/h (2 Bft)
05.03.2007 10:30 10,4 C 77 % 1012,1 hPa 0,0 mm 3,2 km/h (1 Bft) SW 225 10 min 1 UV-I 343 W/m 9,7 km/h (2 Bft)
05.03.2007 10:40 10,8 C 75 % 1012,3 hPa 0,0 mm 4,8 km/h (1 Bft) SW 225 0 min 1 UV-I 241 W/m 14,5 km/h (3 Bft)
05.03.2007 10:50 10,9 C 75 % 1012,5 hPa 0,0 mm 6,4 km/h (2 Bft) W-SW 247 0 min 1 UV-I 134 W/m 16,1 km/h (3 Bft)
05.03.2007 11:00 10,8 C 76 % 1012,5 hPa 0,0 mm 4,8 km/h (1 Bft) W-SW 247 0 min 1 UV-I 213 W/m 14,5 km/h (3 Bft)
05.03.2007 11:10 10,8 C 77 % 1012,7 hPa 0,1 mm 4,8 km/h (1 Bft) SW 225 0 min 1 UV-I 144 W/m 16,1 km/h (3 Bft)
05.03.2007 11:20 10,4 C 82 % 1013,2 hPa 0,5 mm 4,8 km/h (1 Bft) W-SW 247 0 min 1 UV-I 139 W/m 19,3 km/h (3 Bft)
05.03.2007 11:30 9,9 C 82 % 1013,2 hPa 0,0 mm 6,4 km/h (2 Bft) SW 225 0 min 1 UV-I 190 W/m 20,9 km/h (4 Bft)
05.03.2007 11:40 10,1 C 80 % 1013,6 hPa 0,0 mm 8,0 km/h (2 Bft) W-SW 247 0 min 1 UV-I 135 W/m 19,3 km/h (3 Bft)
05.03.2007 11:50 9,9 C 80 % 1014,0 hPa 0,0 mm 6,4 km/h (2 Bft) SW 225 0 min 1 UV-I 123 W/m 19,3 km/h (3 Bft)
05.03.2007 12:00 9,8 C 79 % 1014,1 hPa 0,0 mm 6,4 km/h (2 Bft) W-SW 247 0 min 1 UV-I 229 W/m 17,7 km/h (3 Bft)
05.03.2007 12:10 10,1 C 77 % 1014,0 hPa 0,0 mm 8,0 km/h (2 Bft) W-SW 247 0 min 1 UV-I 257 W/m 22,5 km/h (4 Bft)
05.03.2007 12:20 10,4 C 73 % 1014,1 hPa 0,0 mm 8,0 km/h (2 Bft) W-SW 247 0 min 1 UV-I 288 W/m 25,7 km/h (4 Bft)
05.03.2007 12:30 10,7 C 72 % 1014,0 hPa 0,0 mm 8,0 km/h (2 Bft) W-SW 247 10 min 2 UV-I 364 W/m 25,7 km/h (4 Bft)
05.03.2007 12:40 11,1 C 70 % 1014,0 hPa 0,0 mm 8,0 km/h (2 Bft) W-SW 247 0 min 2 UV-I 281 W/m 19,3 km/h (3 Bft)
05.03.2007 12:50 10,9 C 69 % 1014,1 hPa 0,0 mm 9,7 km/h (2 Bft) SW 225 10 min 2 UV-I 570 W/m 25,7 km/h (4 Bft)
05.03.2007 13:00 11,5 C 65 % 1014,1 hPa 0,0 mm 9,7 km/h (2 Bft) W-SW 247 10 min 2 UV-I 585 W/m 24,1 km/h (4 Bft)
05.03.2007 13:10 11,2 C 67 % 1014,2 hPa 0,0 mm 8,0 km/h (2 Bft) SW 225 0 min 1 UV-I 132 W/m 24,1 km/h (4 Bft)
05.03.2007 13:20 11,1 C 66 % 1014,3 hPa 0,0 mm 6,4 km/h (2 Bft) SW 225 0 min 2 UV-I 116 W/m 16,1 km/h (3 Bft)
05.03.2007 13:30 11,2 C 63 % 1014,3 hPa 0,0 mm 8,0 km/h (2 Bft) W-SW 247 10 min 2 UV-I 664 W/m 19,3 km/h (3 Bft)
05.03.2007 13:40 11,4 C 63 % 1014,3 hPa 0,0 mm 8,0 km/h (2 Bft) SW 225 10 min 2 UV-I 657 W/m 19,3 km/h (3 Bft)
05.03.2007 13:50 11,7 C 59 % 1014,5 hPa 0,0 mm 8,0 km/h (2 Bft) SW 225 10 min 1 UV-I 626 W/m 24,1 km/h (4 Bft)
05.03.2007 14:00 11,8 C 57 % 1014,6 hPa 0,0 mm 8,0 km/h (2 Bft) W-SW 247 0 min 2 UV-I 220 W/m 20,9 km/h (4 Bft)
05.03.2007 14:10 11,8 C 56 % 1014,6 hPa 0,0 mm 9,7 km/h (2 Bft) SW 225 0 min 1 UV-I 167 W/m 20,9 km/h (4 Bft)
05.03.2007 14:20 12,2 C 55 % 1014,7 hPa 0,0 mm 8,0 km/h (2 Bft) SW 225 10 min 2 UV-I 601 W/m 17,7 km/h (3 Bft)
05.03.2007 14:30 12,4 C 55 % 1015,0 hPa 0,0 mm 8,0 km/h (2 Bft) W-SW 247 10 min 1 UV-I 548 W/m 22,5 km/h (4 Bft)
05.03.2007 14:40 11,8 C 59 % 1015,1 hPa 0,0 mm 8,0 km/h (2 Bft) W-SW 247 10 min 1 UV-I 510 W/m 20,9 km/h (4 Bft)
05.03.2007 14:50 11,8 C 56 % 1015,1 hPa 0,0 mm 8,0 km/h (2 Bft) W-SW 247 10 min 1 UV-I 452 W/m 25,7 km/h (4 Bft)
05.03.2007 15:00 11,9 C 56 % 1015,0 hPa 0,0 mm 6,4 km/h (2 Bft) W-SW 247 10 min 1 UV-I 524 W/m 20,9 km/h (4 Bft)
05.03.2007 15:10 12,3 C 53 % 1015,1 hPa 0,0 mm 6,4 km/h (2 Bft) SW 225 10 min 1 UV-I 483 W/m 19,3 km/h (3 Bft)
05.03.2007 15:20 12,1 C 54 % 1015,1 hPa 0,0 mm 6,4 km/h (2 Bft) SW 225 0 min 1 UV-I 162 W/m 19,3 km/h (3 Bft)
05.03.2007 15:30 11,7 C 56 % 1015,5 hPa 0,0 mm 6,4 km/h (2 Bft) SW 225 10 min 1 UV-I 429 W/m 20,9 km/h (4 Bft)
05.03.2007 15:40 11,6 C 57 % 1015,6 hPa 0,0 mm 8,0 km/h (2 Bft) W-SW 247 10 min 1 UV-I 410 W/m 22,5 km/h (4 Bft)
05.03.2007 15:50 11,3 C 59 % 1015,9 hPa 0,0 mm 8,0 km/h (2 Bft) SW 225 10 min 1 UV-I 392 W/m 32,2 km/h (5 Bft)
05.03.2007 16:00 9,6 C 73 % 1017,5 hPa 0,1 mm 16,1 km/h (3 Bft) W-SW 247 0 min 0 UV-I 42 W/m 37,0 km/h (5 Bft)
05.03.2007 16:10 7,2 C 80 % 1017,5 hPa 0,1 mm 8,0 km/h (2 Bft) W-SW 247 0 min 0 UV-I 37 W/m 17,7 km/h (3 Bft)
05.03.2007 16:20 6,6 C 80 % 1017,2 hPa 0,0 mm 6,4 km/h (2 Bft) W-SW 247 0 min 0 UV-I 56 W/m 20,9 km/h (4 Bft)
05.03.2007 16:30 6,8 C 79 % 1017,3 hPa 0,0 mm 4,8 km/h (1 Bft) W-SW 247 0 min 0 UV-I 121 W/m 14,5 km/h (3 Bft)
05.03.2007 16:40 7,3 C 76 % 1017,3 hPa 0,0 mm 4,8 km/h (1 Bft) W-SW 247 10 min 0 UV-I 285 W/m 11,3 km/h (2 Bft)
05.03.2007 16:50 7,9 C 73 % 1017,4 hPa 0,0 mm 6,4 km/h (2 Bft) W-SW 247 0 min 0 UV-I 93 W/m 16,1 km/h (3 Bft)
05.03.2007 17:00 7,9 C 73 % 1017,5 hPa 0,0 mm 4,8 km/h (1 Bft) W-SW 247 10 min 0 UV-I 186 W/m 17,7 km/h (3 Bft)
05.03.2007 17:10 8,3 C 72 % 1017,5 hPa 0,0 mm 4,8 km/h (1 Bft) S-SW 202 10 min 0 UV-I 183 W/m 16,1 km/h (3 Bft)
05.03.2007 17:20 8,4 C 71 % 1017,6 hPa 0,0 mm 4,8 km/h (1 Bft) W-SW 247 10 min 0 UV-I 163 W/m 9,7 km/h (2 Bft)
05.03.2007 17:30 8,3 C 71 % 1017,8 hPa 0,0 mm 4,8 km/h (1 Bft) W-SW 247 10 min 0 UV-I 104 W/m 12,9 km/h (3 Bft)
05.03.2007 17:40 8,2 C 72 % 1017,8 hPa 0,0 mm 4,8 km/h (1 Bft) SW 225 10 min 0 UV-I 70 W/m 14,5 km/h (3 Bft)
05.03.2007 17:50 8,0 C 72 % 1017,9 hPa 0,0 mm 3,2 km/h (1 Bft) W-SW 247 10 min 0 UV-I 39 W/m 8,0 km/h (2 Bft)
05.03.2007 18:00 7,8 C 73 % 1018,0 hPa 0,0 mm 3,2 km/h (1 Bft) SW 225 10 min 0 UV-I 11 W/m 9,7 km/h (2 Bft)
05.03.2007 18:10 7,7 C 73 % 1018,1 hPa 0,0 mm 3,2 km/h (1 Bft) SW 225 0 min 0 UV-I 0 W/m 8,0 km/h (2 Bft)
05.03.2007 18:20 7,5 C 74 % 1018,2 hPa 0,0 mm 1,6 km/h (1 Bft) SW 225 0 min 0 UV-I 0 W/m 8,0 km/h (2 Bft)
05.03.2007 18:30 7,4 C 74 % 1018,3 hPa 0,0 mm 1,6 km/h (1 Bft) SW 225 0 min 0 UV-I 0 W/m 4,8 km/h (1 Bft)
05.03.2007 18:40 7,3 C 75 % 1018,6 hPa 0,0 mm 1,6 km/h (1 Bft) W-SW 247 0 min 0 UV-I 0 W/m 4,8 km/h (1 Bft)
05.03.2007 18:50 7,1 C 76 % 1018,7 hPa 0,0 mm 1,6 km/h (1 Bft) W-SW 247 0 min 0 UV-I 0 W/m 6,4 km/h (2 Bft)
05.03.2007 19:00 7,0 C 76 % 1018,8 hPa 0,0 mm 1,6 km/h (1 Bft) S-SW 202 0 min 0 UV-I 0 W/m 4,8 km/h (1 Bft)
05.03.2007 19:10 6,8 C 77 % 1018,8 hPa 0,0 mm 1,6 km/h (1 Bft) S 180 0 min 0 UV-I 0 W/m 4,8 km/h (1 Bft)
05.03.2007 19:20 6,8 C 76 % 1018,9 hPa 0,0 mm 3,2 km/h (1 Bft) SW 225 0 min 0 UV-I 0 W/m 11,3 km/h (2 Bft)
05.03.2007 19:30 6,8 C 76 % 1018,9 hPa 0,0 mm 3,2 km/h (1 Bft) SW 225 0 min 0 UV-I 0 W/m 9,7 km/h (2 Bft)
05.03.2007 19:40 6,7 C 76 % 1018,8 hPa 0,0 mm 1,6 km/h (1 Bft) W-SW 247 0 min 0 UV-I 0 W/m 6,4 km/h (2 Bft)
05.03.2007 19:50 6,6 C 75 % 1018,8 hPa 0,0 mm 1,6 km/h (1 Bft) W-SW 247 0 min 0 UV-I 0 W/m 8,0 km/h (2 Bft)
05.03.2007 20:00 6,6 C 75 % 1018,9 hPa 0,0 mm 1,6 km/h (1 Bft) SW 225 0 min 0 UV-I 0 W/m 6,4 km/h (2 Bft)
05.03.2007 20:10 6,4 C 75 % 1018,9 hPa 0,0 mm 0,0 km/h (0 Bft) S-SW 202 0 min 0 UV-I 0 W/m 4,8 km/h (1 Bft)
05.03.2007 20:20 6,4 C 75 % 1018,9 hPa 0,0 mm 0,0 km/h (0 Bft) SW 225 0 min 0 UV-I 0 W/m 3,2 km/h (1 Bft)
05.03.2007 20:30 6,3 C 75 % 1018,9 hPa 0,0 mm 0,0 km/h (0 Bft) SW 225 0 min 0 UV-I 0 W/m 3,2 km/h (1 Bft)
05.03.2007 20:40 6,3 C 74 % 1018,9 hPa 0,0 mm 0,0 km/h (0 Bft) SW 225 0 min 0 UV-I 0 W/m 3,2 km/h (1 Bft)
05.03.2007 20:50 6,2 C 75 % 1018,9 hPa 0,0 mm 0,0 km/h (0 Bft) S-SW 202 0 min 0 UV-I 0 W/m 1,6 km/h (1 Bft)
05.03.2007 21:00 6,2 C 75 % 1018,8 hPa 0,0 mm 0,0 km/h (0 Bft) S-SO 157 0 min 0 UV-I 0 W/m 4,8 km/h (1 Bft)
05.03.2007 21:10 6,2 C 75 % 1018,8 hPa 0,0 mm 0,0 km/h (0 Bft) S-SO 157 0 min 0 UV-I 0 W/m 3,2 km/h (1 Bft)
05.03.2007 21:20 6,2 C 75 % 1018,9 hPa 0,0 mm 0,0 km/h (0 Bft) S-SO 157 0 min 0 UV-I 0 W/m 3,2 km/h (1 Bft)
05.03.2007 21:30 5,9 C 77 % 1018,8 hPa 0,0 mm 0,0 km/h (0 Bft) S-SO 157 0 min 0 UV-I 0 W/m 1,6 km/h (1 Bft)
05.03.2007 21:40 5,7 C 78 % 1018,8 hPa 0,0 mm 0,0 km/h (0 Bft) S-SO 157 0 min 0 UV-I 0 W/m 4,8 km/h (1 Bft)
05.03.2007 21:50 5,8 C 77 % 1018,8 hPa 0,0 mm 0,0 km/h (0 Bft) SO 135 0 min 0 UV-I 0 W/m 3,2 km/h (1 Bft)
05.03.2007 22:00 5,9 C 77 % 1018,8 hPa 0,0 mm 0,0 km/h (0 Bft) S-SO 157 0 min 0 UV-I 0 W/m 4,8 km/h (1 Bft)
05.03.2007 22:10 6,1 C 77 % 1018,6 hPa 0,0 mm 0,0 km/h (0 Bft) SO 135 0 min 0 UV-I 0 W/m 4,8 km/h (1 Bft)
05.03.2007 22:20 6,2 C 76 % 1018,6 hPa 0,0 mm 1,6 km/h (1 Bft) SO 135 0 min 0 UV-I 0 W/m 4,8 km/h (1 Bft)
05.03.2007 22:30 6,4 C 76 % 1018,4 hPa 0,0 mm 1,6 km/h (1 Bft) SO 135 0 min 0 UV-I 0 W/m 6,4 km/h (2 Bft)
05.03.2007 22:40 6,4 C 76 % 1018,4 hPa 0,0 mm 0,0 km/h (0 Bft) S-SO 157 0 min 0 UV-I 0 W/m 4,8 km/h (1 Bft)
05.03.2007 22:50 6,5 C 75 % 1018,4 hPa 0,0 mm 1,6 km/h (1 Bft) S-SO 157 0 min 0 UV-I 0 W/m 4,8 km/h (1 Bft)
05.03.2007 23:00 6,6 C 75 % 1018,3 hPa 0,0 mm 1,6 km/h (1 Bft) S-SO 157 0 min 0 UV-I 0 W/m 6,4 km/h (2 Bft)
05.03.2007 23:10 6,7 C 73 % 1018,2 hPa 0,0 mm 1,6 km/h (1 Bft) O-SO 112 0 min 0 UV-I 0 W/m 4,8 km/h (1 Bft)
05.03.2007 23:20 6,9 C 71 % 1018,0 hPa 0,0 mm 1,6 km/h (1 Bft) S 180 0 min 0 UV-I 0 W/m 6,4 km/h (2 Bft)
05.03.2007 23:30 7,2 C 70 % 1017,9 hPa 0,0 mm 1,6 km/h (1 Bft) SO 135 0 min 0 UV-I 0 W/m 6,4 km/h (2 Bft)
05.03.2007 23:40 7,2 C 70 % 1017,8 hPa 0,0 mm 1,6 km/h (1 Bft) SW 225 0 min 0 UV-I 0 W/m 11,3 km/h (2 Bft)
05.03.2007 23:50 7,3 C 69 % 1017,7 hPa 0,0 mm 3,2 km/h (1 Bft) S-SO 157 0 min 0 UV-I 0 W/m 11,3 km/h (2 Bft)
_ Min-Zeit 21:40 15:10 05:50 - 06:40 - - - - - 20:50
Minimum _ 5,6 C 53 % 1006,7 hPa - 0,0 km/h (0 Bft) - - - - - 1,6 km/h (1 Bft)
_ Max-Zeit 14:20 11:20 19:20 11:20 16:00 - - 10:30 12:30 13:30 16:00
Maximum _ 12,6 C 82 % 1018,9 hPa 0,5 mm 16,1 km/h
W-SW (3 Bft)
- - 10 min 2 UV-I 664 W/m 37,0 km/h
N (5 Bft)
Durchschnitt _ 9,1 C 68 % 1013,6 hPa #0,7 mm 4,1 km/h (1 Bft) W-SW - #4:00 h 1 UV-I 220 W/m 13,3 km/h (3 Bft)